Regional Weather Roundup
Issued by NWS

Home | Current Version | Previous Version | Graphics & Text | Print | Product List | Glossary On
Versions: 1 2 3 4 5 6 7 8 9 10 11 12 13 14 15 16 17 18 19 20 21 22 23 24 25 26 27 28 29 30 31 32 33 34 35 36 37 38 39 40 41 42 43 44 45 46 47 48 49 50
000
ASUS45 KTFX 060810
RWRMT
MONTANA REGIONAL WEATHER ROUNDUP
NATIONAL WEATHER SERVICE GREAT FALLS MT
200 AM MDT MON JUL 06 2015

NOTE: "FAIR" INDICATES FEW OR NO CLOUDS BELOW 12000 FEET WITH NO
SIGNIFICANT WEATHER AND/OR OBSTRUCTIONS TO VISIBILITY.

MTZ001>007-043-060900-
WEST OF THE DIVIDE

CITY           SKY/WX    TMP DP  RH WIND       PRES   REMARKS
KALISPELL      SUNNY     43  38  82 CALM      30.18F
MISSOULA       CLEAR     59  43  55 SE16      30.20R
BUTTE          CLOUDY    51  43  74 NW6       30.27F
MULLAN PASS    CLEAR     48  40  73 SE9       30.21F
DEER LODGE       N/A     52  45  76 NW8       30.30S
EUREKA           N/A     54  39  58 CALM      30.19S
HAMILTON         N/A     61  46  59 N5        30.17S
LIBBY            N/A     52  43  71 SE3       30.19R
PLAINS           N/A     55  42  61 CALM      30.16R
THOMPSON FALLS   N/A     62  43  49 NE10      30.17S
$$

MTZ008-052>055-060900-
SOUTHWEST MONTANA

CITY           SKY/WX    TMP DP  RH WIND       PRES   REMARKS
BOZEMAN        LGT RAIN  54  49  83 W7        30.25R
DILLON         CLOUDY    52  47  83 NE9       30.24R
W YELLOWSTONE  MOCLDY    48  48 100 CALM      30.28R
THREE FORKS      N/A     56  56 100 CALM      30.22S
TWIN BRIDGES     N/A     54  44  68 N12       30.20R
$$

MTZ009-010-012-014-046-048-049-054-060900-
EAST SLOPES AND CENTRAL MONTANA

CITY           SKY/WX    TMP DP  RH WIND       PRES   REMARKS
CUT BANK       CLEAR     43  41  93 W7        30.25S
GREAT FALLS    CLOUDY    50  49  96 SW3       30.27S
MALMSTROM AFB  MOCLDY    51  49  94 W6        30.27S
HELENA         CLOUDY    53  47  79 W8        30.26F
$$

MTZ011-013-016-021-045-047-050-051-060900-
NORTH CENTRAL MONTANA

CITY           SKY/WX    TMP DP  RH WIND       PRES   REMARKS
HAVRE          MOCLDY    53  51  93 MISG      30.22S
LEWISTOWN      CLOUDY    52  49  89 W6        30.27R
CHINOOK          N/A     55  52  88 SW3       30.22R
FORT BENTON      N/A     52  48  87 S5        30.26S
$$

MTZ017>020-022>027-061-062-060900-
NORTHEAST MONTANA

CITY           SKY/WX    TMP DP  RH WIND       PRES   REMARKS
GLASGOW        CLOUDY    57  54  89 W7        30.16S
JORDAN           N/A     57  54  89 NW12      30.19S
SIDNEY         MOCLDY    61  52  72 W6        30.12R
WOLF POINT     LGT RAIN  59  54  83 W9        30.15R
MALTA            N/A     55  50  83 CALM      30.15R
PLENTYWOOD       N/A     52  46  82 NW5       30.13R
POPLAR           N/A     59  54  82 W3        30.15R
SCOBEY           N/A     52  45  77 CALM      30.12S
$$

MTZ028>42-056>058-060900-
SOUTHCENTRAL AND SOUTHEAST MONTANA

CITY           SKY/WX    TMP DP  RH WIND       PRES   REMARKS
BAKER          CLOUDY    59  51  75 W12       30.15R
BILLINGS       CLOUDY    55  47  74 N7        30.25R
LIVINGSTON     CLOUDY    54  49  83 E8        30.24S
MILES CITY     CLOUDY    58  54  86 NW10      30.17S
EKALAKA          N/A     55  50  83 NW2       30.14R
FORSYTH          N/A     55  55 100 W3        30.20S
LAUREL           N/A     55  45  69 CALM      30.21R
ROUNDUP          N/A     55  46  71 CALM      30.14R
$$

REGIONAL REPORTS...DAKOTAS

CITY           SKY/WX    TMP DP  RH WIND       PRES   REMARKS
WILLISTON      MOCLDY    60  51  72 N5        30.11R
MINOT          CLOUDY    54  50  86 NW8       30.05R
DICKINSON      CLOUDY    58  52  80 NW5       30.08R
BEACH          CLOUDY    57  55  94 NW8       30.14R
CROSBY         FAIR      54  54 100 NW8       30.10S
BISMARCK       MOCLDY    63  54  72 NW12      30.02R HAZE
GRAND FORKS    CLOUDY    61  58  90 N16       29.94R FOG
FARGO          CLOUDY    65  59  81 N10       29.91R HAZE
BUFFALO SD       N/A     58  54  86 NW10      30.07R
RAPID CITY     CLOUDY    61  56  83 N12       30.11R HAZE
$$

REGIONAL REPORTS...WYOMING/IDAHO/WASHINGTON

CITY           SKY/WX    TMP DP  RH WIND       PRES   REMARKS
GILLETTE       CLOUDY    56  54  93 NW8       30.19S FOG
SHERIDAN       CLOUDY    56  54  93 NE3       30.21R FOG
BUFFALO WY     CLOUDY    54  51  90 W6        30.23F FOG
CODY           CLOUDY    52  50  93 N9        30.24R
YELLOWSTONE LA   N/A     49  47  93 NW3       30.34R
IDAHO FALLS    CLOUDY    64  55  72 E6        30.11R
SALMON         PTCLDY    63  52  67 CALM      30.09R
BOISE          MOCLDY    71  55  56 SE5       29.99R
SPOKANE        PTCLDY    71  41  33 E15       30.01S
$$

REGIONAL REPORTS...ALBERTA

CITY           SKY/WX    TMP DP  RH WIND       PRES   REMARKS
EDMONTON       CLEAR     52  37  58 S5        30.16S
CALGARY        MOCLDY    50  43  76 S7        30.22F
LETHBRIDGE     CLEAR     46  45  93 S3        30.23S
MEDICINE HAT   CLEAR     48  46  93 VRB2      30.21S
CARDSTON         N/A     45  43  93 S2          N/A
MILK RIVER       N/A     43  43 100 W3          N/A
ONEFOUR          N/A     50  48  93 NW10        N/A
$$

REGIONAL REPORTS...SASKATCHEWAN

CITY           SKY/WX    TMP DP  RH WIND       PRES   REMARKS
SWIFT CURRENT  MOCLDY    50  46  87 W9        30.17R
REGINA         MOCLDY    52  48  87 N8        30.13R
SASKATOON      PTCLDY    45  43  93 W7        30.17R
CYPRESS HILLS    N/A     46  45  93 NW1         N/A
VAL MARIE        N/A     50  48  93 NW7         N/A
ROCKGLEN         N/A     54  48  82 NW6         N/A
ASSINIBOIA       N/A     45  41  87 S5          N/A
$$



USA.gov is the U.S. government's official web portal to all federal, state and local government web resources and services.